SP4LIN-15 Weather Reports


time (UTC)temp
C
wind
direction
speed
KPH
gust
KPH
rain 1hr
cm
rain 24hr
cm
rain mn
cm
humidity
%
barometer
mb
20260507002400 7 337 0.0 0.0 0.00 0.05 0.00 85 1001.1
20260507000900 6 0 1.6 4.8 0.00 0.05 0.00 86 1000.7
20260506235400 6 337 4.8 4.8 0.00 0.05 0.00 86 1000.3
20260506233900 7 0 6.4 6.4 0.00 0.05 0.00 86 1000.1
20260506232400 7 0 8.0 8.0 0.00 0.05 0.00 86 1000.2
20260506230900 7 0 3.2 3.2 0.00 0.05 0.00 86 1000.1
20260506225400 7 0 1.6 4.8 0.00 0.05 0.00 87 1000.2
20260506223900 6 315 6.4 6.4 0.00 0.05 0.00 87 1000.1
20260506222400 6 337 6.4 6.4 0.00 0.05 0.00 86 999.7
20260506220900 6 0 1.6 3.2 0.00 0.05 0.00 86 999.6
20260506215400 6 337 3.2 4.8 0.00 0.05 0.00 86 999.8
20260506213900 6 337 6.4 8.0 0.00 0.05 0.00 85 999.7
20260506212400 7 337 3.2 3.2 0.00 0.05 0.00 85 999.7
20260506210900 7 0 0.0 8.0 0.00 0.05 0.00 85 999.7
20260506205400 7 337 0.0 1.6 0.00 0.05 0.00 84 999.4
20260506203900 7 22 1.6 4.8 0.00 0.05 0.00 84 999.2
20260506202400 7 0 6.4 6.4 0.00 0.05 0.00 84 999.2
20260506200900 7 0 4.8 4.8 0.00 0.05 0.00 84 999.0
20260506195400 7 337 4.8 4.8 0.00 0.05 0.00 84 998.8
20260506193900 7 337 1.6 4.8 0.00 0.05 0.00 83 998.7
20260506192401 8 22 0.0 0.0 0.00 0.05 0.00 82 998.7
20260506190901 8 0 3.2 3.2 0.00 0.05 0.00 81 998.6
20260506185401 8 0 1.6 3.2 0.00 0.10 0.00 79 998.6
20260506183901 9 22 0.0 0.0 0.00 0.10 0.00 77 998.4
20260506182401 10 0 3.2 3.2 0.00 0.10 0.00 75 998.2
20260506180901 11 45 0.0 3.2 0.00 0.10 0.00 73 998.0
20260506175401 12 45 0.0 1.6 0.00 0.10 0.00 73 998.1
20260506173901 12 45 0.0 0.0 0.00 0.10 0.00 72 997.9
20260506172401 12 67 0.0 0.0 0.00 0.10 0.00 72 997.9
20260506170901 12 45 1.6 1.6 0.00 0.10 0.00 71 997.8
20260506165401 13 67 0.0 0.0 0.00 0.10 0.00 70 997.9
20260506163901 13 45 0.0 0.0 0.00 0.10 0.00 69 997.8
20260506162401 14 45 6.4 6.4 0.00 0.10 0.00 71 997.9
20260506160901 14 45 4.8 4.8 0.00 0.10 0.00 70 998.0
20260506155401 14 45 1.6 3.2 0.00 0.15 0.00 70 998.2
20260506153901 14 45 1.6 1.6 0.00 0.15 0.00 70 998.2
20260506152401 15 45 1.6 3.2 0.00 0.15 0.00 70 998.3
20260506150901 15 0 1.6 8.0 0.00 0.15 0.00 70 998.4
20260506145401 14 337 3.2 3.2 0.00 0.20 0.00 70 998.6
20260506143901 15 0 9.7 9.7 0.00 0.20 0.00 69 998.6
20260506142401 16 337 4.8 4.8 0.00 0.20 0.00 69 998.3
20260506140901 15 337 8.0 8.0 0.00 0.20 0.00 69 998.4
20260506135401 17 22 0.0 6.4 0.00 0.20 0.00 65 998.1
20260506133901 17 0 6.4 6.4 0.00 0.20 0.00 66 997.8
20260506132401 18 45 3.2 4.8 0.00 0.20 0.00 63 997.7
20260506130901 20 22 9.7 9.7 0.00 0.20 0.00 61 997.7
20260506125401 17 45 0.0 4.8 0.00 0.20 0.00 67 997.7
20260506123901 17 45 11.3 11.3 0.00 0.20 0.00 68 997.5
20260506122401 16 45 1.6 9.7 0.00 0.20 0.00 71 997.5
20260506120901 16 67 6.4 8.0 0.00 0.20 0.00 71 997.5
20260506115401 16 22 0.0 0.0 0.00 0.20 0.00 71 997.6
20260506113901 16 45 6.4 6.4 0.00 0.20 0.00 70 997.6
20260506112402 16 45 4.8 4.8 0.00 0.20 0.00 68 997.5
20260506110901 17 157 0.0 0.0 0.00 0.20 0.00 64 997.5
20260506105401 21 67 8.0 8.0 0.00 0.20 0.00 58 997.6
20260506103901 20 45 0.0 8.0 0.00 0.20 0.00 61 997.7
20260506102401 18 67 3.2 8.0 0.00 0.20 0.00 67 997.8
20260506100901 16 135 0.0 1.6 0.00 0.20 0.00 72 998.1
20260506095402 15 45 1.6 3.2 0.00 0.20 0.00 75 998.0
20260506093902 13 45 3.2 6.4 0.00 0.20 0.00 76 997.8
20260506092402 13 45 1.6 8.0 0.00 0.20 0.00 79 997.9
20260506090902 12 45 9.7 9.7 0.00 0.20 0.00 80 997.8
20260506085402 12 67 3.2 4.8 0.00 0.20 0.00 77 998.1
20260506083902 13 67 4.8 8.0 0.00 0.20 0.00 73 998.1
20260506082402 14 67 0.0 9.7 0.00 0.20 0.00 72 998.2
20260506080902 13 67 3.2 4.8 0.00 0.20 0.00 71 998.2
20260506072402 16 90 0.0 8.0 0.00 0.20 0.00 64 998.5
20260506070902 16 135 8.0 8.0 0.00 0.20 0.00 68 998.9
20260506062402 15 45 4.8 9.7 0.00 0.20 0.00 70 998.8
20260506060902 13 22 4.8 9.7 0.00 0.20 0.00 76 999.1
20260506050902 8 22 4.8 4.8 0.00 0.20 0.00 86 999.9
20260506043902 7 45 0.0 9.7 0.05 0.20 0.00 88 1000.2
20260506042402 7 67 3.2 4.8 0.05 0.20 0.00 88 1000.2
20260506040902 7 67 3.2 4.8 0.00 0.15 0.00 88 1000.2
20260506035402 7 67 1.6 3.2 0.00 0.15 0.00 88 1000.4
20260506033902 7 45 3.2 3.2 0.00 0.15 0.00 88 1000.5
20260506032402 7 45 3.2 6.4 0.00 0.15 0.00 88 1000.6
20260506030902 7 45 0.0 0.0 0.00 0.15 0.00 88 1000.7
20260506025402 7 45 3.2 3.2 0.00 0.15 0.00 88 1000.4
20260506023902 7 67 0.0 3.2 0.00 0.15 0.00 88 1000.7
20260506022402 7 45 4.8 4.8 0.00 0.15 0.00 88 1000.7
20260506020902 7 67 0.0 4.8 0.00 0.15 0.00 88 1000.7
20260506015402 7 45 3.2 6.4 0.00 0.15 0.00 88 1001.0
20260506013902 8 22 6.4 9.7 0.00 0.15 0.00 88 1000.8
20260506012402 8 45 0.0 3.2 0.00 0.15 0.00 88 1001.6
20260506010902 8 45 3.2 3.2 0.00 0.15 0.00 88 1001.6
20260506005402 8 22 0.0 6.4 0.00 0.15 0.00 88 1001.5
20260506003903 8 45 1.6 3.2 0.00 0.15 0.00 88 1001.5